[[{"header":{"parameterUnit":"m.s-1","parameterCategory":1,"la1":30.2991,"la2":30.254,"lo1":-89.0895,"lo2":-89.0444,"dy":0.0017,"dx":0.0017,"nx":28,"ny":28,"refTime":"2024-03-30T21:00:00:Z","depth":0,"parameterNumber":2,"parameterNumberName":"U-component_of_WINDS"},"data":[0,0,0,0,0,0,0,0,0,0,0,0,0,0,0,0,0,0,0,0,0,0,0,0,0,0,0,0,0,0,0,0,0,0,0,0,0,0,0,0,0,0,0,0,0,0,0,0,0,0,0,0,0,0,0,0,0,0,-1.1924,-1.1925,0,-1.1979,-1.198,-1.198,-1.1981,-1.1981,-1.198,-1.1979,-1.2034,-1.2036,-1.2038,0,0,0,0,0,0,0,0,0,0,0,0,0,-1.182,-1.1822,-1.1924,-1.1925,-1.1926,-1.1979,-1.198,-1.198,-1.1981,-1.198,-1.198,-1.1979,-1.2034,-1.2036,-1.2039,0,0,0,0,0,0,0,0,0,0,0,0,0,-1.1869,-1.1822,-1.1924,-1.1932,-1.1934,-1.1979,-1.198,-1.1981,-1.1982,-1.198,-1.1979,-1.1978,-1.2033,-1.2036,-1.2039,-1.2079,0,0,-1.2049,-1.205,0,0,0,0,0,0,0,0,-1.1866,-1.1873,-1.1931,-1.1932,-1.1933,-1.1972,-1.1963,-1.2014,-1.1982,-1.1963,-1.1979,-1.1978,-1.2014,-1.2019,-1.2032,-1.2082,-1.2084,-1.2049,-1.2051,-1.2052,-1.2053,0,0,0,0,0,0,0,-1.1863,-1.187,-1.1946,-1.1931,-1.1933,-1.1933,-1.1939,-1.1973,-1.1994,-1.1965,-1.1965,-1.1972,-1.2015,-1.2029,-1.2033,-1.2085,-1.2049,-1.2052,-1.2054,-1.2055,-1.217,-1.2171,0,0,0,0,0,0,-1.1858,-1.1867,-1.1944,-1.1947,-1.1897,-1.1936,-1.1943,-1.1961,-1.1994,-1.1998,-1.1972,-1.1971,-1.2024,-1.2029,-1.2035,-1.2083,-1.2052,-1.2055,-1.2057,-1.2169,-1.217,-1.2171,0,0,0,0,0,0,-1.1855,-1.1864,-1.1942,-1.1908,-1.1917,-1.1939,-1.1959,-1.1962,-1.1976,-1.1999,-1.2003,-1.1982,-1.2023,-1.203,-1.2068,-1.2085,-1.2057,-1.2059,-1.2167,-1.2169,-1.2171,-1.218,0,0,0,0,0,0,-1.1852,-1.1864,-1.1879,-1.1908,-1.1919,-1.1974,-1.1961,-1.1964,-1.1981,-1.1981,-1.201,-1.2013,-1.2023,-1.2063,-1.2071,-1.2089,-1.2062,-1.2166,-1.2168,-1.217,-1.2178,-1.2182,-1.2185,0,0,0,0,0,-1.1849,-1.1879,-1.188,-1.1889,-1.1939,-1.1975,-1.1982,-1.1992,-1.1983,-1.1998,-1.2014,-1.2012,-1.2082,-1.2067,-1.2076,-1.2095,-1.2165,-1.2168,-1.217,-1.2177,-1.2181,-1.2185,0,0,0,0,0,0,-1.1852,-1.1883,-1.1884,-1.1925,-1.1948,-1.1975,-1.1995,-1.1997,-1.2022,-1.202,-1.2032,-1.2038,-1.2076,-1.2089,-1.2072,-1.2135,-1.2122,-1.2127,-1.2124,-1.2129,-1.2132,-1.2127,-1.2065,0,0,0,0,0,-1.1857,-1.1884,-1.191,-1.1944,-1.1955,-1.1974,-1.199,-1.1996,-1.2019,-1.2029,-1.2047,-1.2069,-1.2096,-1.2114,-1.214,-1.2181,-1.2187,-1.2198,-1.2202,-1.2204,-1.2208,-1.223,-1.2235,-1.218,-1.218,-1.218,0,0,-1.1869,-1.1889,-1.1906,-1.1945,-1.1963,-1.1991,-1.1981,-1.2011,-1.2031,-1.2033,-1.2069,-1.2084,-1.211,-1.2149,-1.2167,-1.2161,-1.2224,-1.2208,-1.221,-1.2211,-1.2233,-1.2238,-1.2243,-1.2182,-1.2182,-1.2181,0,0,-1.1903,-1.1922,-1.1952,-1.197,-1.1998,-1.201,-1.2017,-1.2045,-1.2054,-1.2091,-1.2093,-1.2118,-1.2164,-1.2182,-1.2198,-1.224,-1.2239,-1.2248,-1.2265,-1.2286,-1.2291,-1.2295,-1.2308,-1.2313,-1.2252,-1.2252,-1.2252,0,-1.1914,-1.1955,-1.1967,-1.1996,-1.2013,-1.2017,-1.2047,-1.2065,-1.2099,-1.2111,-1.2104,-1.2163,-1.2181,-1.2224,-1.2234,-1.2247,-1.2255,-1.2244,-1.2289,-1.2293,-1.2297,-1.231,-1.2316,-1.2253,-1.2253,-1.2252,-1.2252,0,-1.1966,-1.1995,-1.2016,-1.2049,-1.2069,-1.2098,-1.2114,-1.2133,-1.2138,-1.2151,-1.2188,-1.221,-1.224,-1.2251,-1.2256,-1.2296,-1.2291,-1.2287,-1.2274,-1.2303,-1.2315,-1.2321,-1.2254,-1.2253,-1.2253,-1.2253,0,0,-1.2002,-1.2043,-1.205,-1.2065,-1.2096,-1.2118,-1.2148,-1.2178,-1.2194,-1.2218,-1.2242,-1.2282,-1.2279,-1.2296,-1.2303,-1.2322,-1.2353,-1.2316,-1.2317,-1.2321,-1.2396,-1.2398,-1.2404,-1.2354,-1.2355,-1.2356,-1.2394,0,-1.2039,-1.2092,-1.2104,-1.2149,-1.2175,-1.218,-1.2206,-1.2228,-1.2241,-1.2265,-1.2279,-1.2307,-1.23,-1.2311,-1.233,-1.2345,-1.2368,-1.2343,-1.2376,-1.2377,-1.2368,-1.2411,-1.2413,-1.2447,-1.2399,-1.24,-1.24,0,-1.2088,-1.2114,-1.2162,-1.2189,-1.2201,-1.2224,-1.2252,-1.2276,-1.23,-1.2309,-1.2328,-1.2334,-1.2365,-1.2352,-1.2394,-1.2377,-1.2391,-1.2401,-1.2403,-1.2405,-1.2389,-1.2412,-1.2459,-1.2463,-1.2409,-1.2408,-1.2407,0,-1.2108,-1.2155,-1.2189,-1.2202,-1.2236,-1.2252,-1.2266,-1.229,-1.2308,-1.2333,-1.2344,-1.2372,-1.2387,-1.2409,-1.2422,-1.2412,-1.2463,-1.2451,-1.247,-1.2469,-1.2479,-1.2478,-1.2526,-1.2491,-1.2491,-1.2491,-1.2491,0,-1.2147,-1.2176,-1.2198,-1.2219,-1.2252,-1.2266,-1.2297,-1.2312,-1.2334,-1.2357,-1.2364,-1.2386,-1.2402,-1.2427,-1.2437,-1.247,-1.2477,-1.2484,-1.2486,-1.2483,-1.2481,-1.2491,-1.2488,-1.2492,-1.2492,-1.2491,-1.2491,0,-1.2174,-1.219,-1.2228,-1.2257,-1.2265,-1.2287,-1.2312,-1.2333,-1.2346,-1.2376,-1.2384,-1.2405,-1.2434,-1.245,-1.2486,-1.2493,-1.2529,-1.2531,-1.2521,-1.2521,-1.2538,-1.2536,-1.2593,-1.2601,-1.2562,-1.2562,-1.2563,0,-1.2196,-1.2219,-1.225,-1.2267,-1.2282,-1.2308,-1.2326,-1.2341,-1.2359,-1.2389,-1.2406,-1.2436,-1.246,-1.2506,-1.2524,-1.2552,-1.2554,-1.2572,-1.2558,-1.2553,-1.2552,-1.255,-1.2552,-1.2574,-1.2574,-1.2574,-1.2575,0,-1.2234,-1.2242,-1.2267,-1.2296,-1.2317,-1.234,-1.2363,-1.2376,-1.2395,-1.2415,-1.2445,-1.2464,-1.2501,-1.253,-1.2559,-1.2574,-1.2577,-1.2579,-1.2585,-1.258,-1.2573,-1.2576,-1.2526,-1.2577,-1.2577,-1.2577,-1.2577,-1.2577,-1.2259,-1.2279,-1.2304,-1.2332,-1.2351,-1.2372,-1.2393,-1.2409,-1.2435,-1.2466,-1.2474,-1.2505,-1.253,-1.2569,-1.2585,-1.261,-1.2606,-1.2614,-1.2616,-1.2617,-1.2617,-1.257,-1.2615,-1.2615,-1.2615,-1.2615,-1.2615,0,-1.2296,-1.2313,-1.2339,-1.2371,-1.2393,-1.2395,-1.242,-1.2439,-1.2466,-1.2489,-1.2513,-1.2547,-1.2576,-1.2597,-1.2625,-1.2641,-1.2643,-1.2648,-1.2646,-1.2649,-1.262,-1.2611,-1.2646,-1.2646,-1.2645,-1.2645,-1.2645,-1.2645,-1.2318,-1.2351,-1.2362,-1.2404,-1.2421,-1.2452,-1.2466,-1.2486,-1.2504,-1.2542,-1.2566,-1.2579,-1.2601,-1.2632,-1.2658,-1.2663,-1.2673,-1.2677,-1.2683,-1.2655,-1.2651,-1.2648,-1.264,-1.268,-1.268,-1.271,-1.271,-1.271]},{"header":{"parameterUnit":"m.s-1","parameterCategory":1,"la1":30.2991,"la2":30.254,"lo1":-89.0895,"lo2":-89.0444,"dy":0.0017,"dx":0.0017,"nx":28,"ny":28,"refTime":"2024-03-30T21:00:00:Z","depth":0,"parameterNumber":3,"parameterNumberName":"V-component_of_WINDS"},"data":[0,0,0,0,0,0,0,0,0,0,0,0,0,0,0,0,0,0,0,0,0,0,0,0,0,0,0,0,0,0,0,0,0,0,0,0,0,0,0,0,0,0,0,0,0,0,0,0,0,0,0,0,0,0,0,0,0,0,2.6532,2.6532,0,2.6617,2.6618,2.6619,2.6677,2.6677,2.6678,2.6678,2.6768,2.677,2.6772,0,0,0,0,0,0,0,0,0,0,0,0,0,2.6423,2.6425,2.6531,2.6533,2.6534,2.6617,2.6618,2.6619,2.6677,2.6677,2.6678,2.6678,2.6768,2.677,2.6772,0,0,0,0,0,0,0,0,0,0,0,0,0,2.6485,2.6425,2.6531,2.6572,2.6577,2.6617,2.6618,2.6619,2.6677,2.6677,2.6678,2.6678,2.6767,2.677,2.6773,2.6779,0,0,2.6782,2.6783,0,0,0,0,0,0,0,0,2.6482,2.6489,2.6565,2.657,2.6575,2.6637,2.6613,2.6673,2.6676,2.6639,2.6678,2.6679,2.6724,2.6731,2.6746,2.6784,2.6787,2.6782,2.6784,2.6785,2.6786,0,0,0,0,0,0,0,2.6477,2.6486,2.6565,2.6566,2.6572,2.6588,2.6598,2.6625,2.6677,2.6642,2.6646,2.6656,2.6727,2.6742,2.6748,2.6789,2.6782,2.6785,2.6787,2.6788,2.6841,2.684,0,0,0,0,0,0,2.6466,2.6482,2.6563,2.6568,2.6529,2.6589,2.66,2.6616,2.6677,2.6687,2.6655,2.6658,2.6737,2.6744,2.6751,2.6766,2.6785,2.6788,2.679,2.6841,2.6841,2.684,0,0,0,0,0,0,2.6463,2.6473,2.6559,2.6526,2.6538,2.6591,2.6608,2.6618,2.6633,2.6687,2.6697,2.6661,2.6738,2.6747,2.6773,2.677,2.679,2.6792,2.6842,2.6841,2.684,2.6792,0,0,0,0,0,0,2.646,2.6471,2.6473,2.6526,2.654,2.6577,2.6608,2.6619,2.6638,2.6643,2.6695,2.6704,2.6739,2.6768,2.6776,2.6774,2.6795,2.6842,2.6841,2.6841,2.6795,2.679,2.6787,0,0,0,0,0,2.6456,2.6456,2.6473,2.6482,2.6543,2.6577,2.6585,2.6624,2.6637,2.6641,2.6676,2.6703,2.6768,2.677,2.6779,2.6779,2.6843,2.6842,2.6841,2.6796,2.6791,2.6787,0,0,0,0,0,0,2.6402,2.6464,2.6483,2.65,2.6533,2.6587,2.6592,2.6617,2.6647,2.6651,2.6699,2.671,2.6732,2.6758,2.6758,2.679,2.6809,2.681,2.6772,2.6768,2.6764,2.6757,2.6797,0,0,0,0,0,2.6392,2.6413,2.6466,2.6476,2.6492,2.6539,2.6555,2.6582,2.6619,2.6633,2.667,2.6705,2.6734,2.6752,2.6782,2.6799,2.6813,2.6803,2.6799,2.6796,2.6796,2.681,2.6807,2.6837,2.6837,2.6837,0,0,2.6372,2.6408,2.6418,2.6466,2.6495,2.6518,2.655,2.6572,2.659,2.6637,2.6663,2.6692,2.6735,2.6757,2.6768,2.6779,2.6791,2.6794,2.6791,2.6794,2.6809,2.6806,2.6803,2.6836,2.6837,2.6837,0,0,2.6346,2.6375,2.6387,2.6416,2.6459,2.6491,2.6494,2.6544,2.6565,2.6592,2.6629,2.6652,2.67,2.673,2.6752,2.6741,2.6768,2.6749,2.6728,2.6741,2.6739,2.6737,2.6736,2.6734,2.6749,2.6749,2.6749,0,2.6316,2.635,2.6391,2.6411,2.6433,2.6476,2.6491,2.6517,2.6567,2.6582,2.6593,2.6657,2.6688,2.6719,2.6717,2.6732,2.6739,2.6743,2.6736,2.6735,2.6734,2.6733,2.6731,2.6747,2.6747,2.6747,2.6747,0,2.6312,2.6335,2.634,2.6388,2.641,2.6427,2.6473,2.649,2.6517,2.6548,2.6577,2.6617,2.6657,2.6666,2.6691,2.6701,2.6707,2.6726,2.6747,2.6728,2.6728,2.6727,2.6743,2.6744,2.6745,2.6745,0,0,2.6254,2.6326,2.6327,2.6351,2.6402,2.6422,2.6443,2.6481,2.6496,2.653,2.6551,2.6592,2.6611,2.6635,2.6665,2.6676,2.6668,2.6695,2.6697,2.669,2.6685,2.6671,2.6669,2.6686,2.6686,2.6686,2.6682,0,2.6238,2.6276,2.6314,2.6339,2.6363,2.6406,2.6425,2.6459,2.649,2.6516,2.655,2.6579,2.6601,2.6616,2.6629,2.6666,2.6668,2.6667,2.6708,2.6708,2.6696,2.6669,2.6654,2.6647,2.6682,2.6682,2.6682,0,2.6224,2.6256,2.6283,2.6335,2.6347,2.6362,2.6402,2.6426,2.6467,2.6489,2.6517,2.6549,2.6576,2.6593,2.6631,2.663,2.6649,2.667,2.6671,2.6677,2.6694,2.6676,2.6646,2.6646,2.6682,2.6682,2.6682,0,2.6182,2.6232,2.6256,2.6274,2.6335,2.6345,2.6371,2.6413,2.6435,2.647,2.6485,2.6523,2.6544,2.6574,2.6616,2.6624,2.6651,2.6671,2.6672,2.6671,2.6676,2.6675,2.665,2.6686,2.6686,2.6686,2.6686,0,2.6161,2.6176,2.6238,2.6252,2.6272,2.6317,2.6336,2.6366,2.6404,2.6426,2.6466,2.6487,2.6541,2.6569,2.6603,2.6631,2.664,2.666,2.6669,2.6657,2.6654,2.6671,2.6673,2.6686,2.6686,2.6686,2.6686,0,2.6117,2.6158,2.6187,2.6243,2.6257,2.6269,2.6318,2.6335,2.6368,2.6396,2.6406,2.6458,2.6494,2.6539,2.6589,2.6612,2.6637,2.665,2.6622,2.6628,2.6627,2.6627,2.6612,2.6614,2.6646,2.6646,2.6646,0,2.6101,2.6114,2.6171,2.6189,2.6214,2.6241,2.6264,2.631,2.6332,2.6382,2.6393,2.6432,2.6465,2.652,2.6564,2.6603,2.6618,2.661,2.6624,2.6613,2.662,2.6619,2.6622,2.6607,2.6606,2.6606,2.6605,0,2.607,2.609,2.612,2.6158,2.6183,2.6215,2.6249,2.6262,2.6316,2.6339,2.6375,2.6401,2.6453,2.6491,2.6536,2.6566,2.6595,2.6601,2.6603,2.6592,2.6576,2.6587,2.6614,2.6601,2.6601,2.6602,2.6602,2.6602,2.6041,2.6056,2.6098,2.6131,2.6162,2.6193,2.6212,2.6248,2.6279,2.6324,2.635,2.6386,2.643,2.6494,2.6522,2.6553,2.6564,2.6567,2.6568,2.6568,2.6566,2.657,2.6561,2.6561,2.6561,2.6562,2.6562,0,2.6013,2.6043,2.6073,2.6119,2.6146,2.6171,2.621,2.6231,2.6262,2.6301,2.6333,2.6376,2.6414,2.6462,2.6504,2.6519,2.6534,2.6529,2.6529,2.6536,2.6552,2.6547,2.6516,2.6516,2.6516,2.6516,2.6516,2.6516,2.6002,2.6029,2.6054,2.6097,2.6128,2.6163,2.6184,2.6214,2.6245,2.6291,2.6323,2.6353,2.6396,2.6442,2.6479,2.6493,2.6507,2.6498,2.6515,2.653,2.6534,2.6538,2.6533,2.65,2.65,2.6496,2.6496,2.6496]}]]